Manistique, MI

7:51 PM EDT on May 26, 2017 (GMT -0400)
Schoolcraft County

Weather History for KISQ - October, 2012

Change the Weather History Date:

Tuesday, October 16, 2012

  Actual Average Record
Temperature  
Mean Temperature 40 °F -  
Max Temperature 53 °F 53 °F 70 °F (1953)
Min Temperature 28 °F 35 °F 26 °F (2002)
Degree Days  
Heating Degree Days 24    
Moisture  
Dew Point 41 °F    
Average Humidity 86    
Maximum Humidity 94    
Minimum Humidity 77    
Precipitation  
Precipitation 0.00 in - - ()
Sea Level Pressure  
Sea Level Pressure 29.77 in    
Wind  
Wind Speed 5 mph (South)    
Max Wind Speed 16 mph    
Max Gust Speed 22 mph    
Visibility 10 miles    
Events Rain    
Averages and records for this station are not official NWS values.
T = Trace of Precipitation, MM = Missing Value Source: NWS Daily Summary

Daily Weather History Graph

Daily Weather History Graph

Search for Another Location

Airport or City:

Trip Planner

Search our weather history database for the weather conditions in past years. The results will help you decide how hot, cold, wet, or windy it might be!

Date:

Astronomy

Oct. 16, 2012 Rise Set
Actual Time 8:03 AM EDT 6:55 PM EDT
Civil Twilight 7:33 AM EDT 7:26 PM EDT
Nautical Twilight 6:58 AM EDT 8:00 PM EDT
Astronomical Twilight 6:24 AM EDT 8:35 PM EDT
Moon 9:32 AM EDT (10/16) 7:32 PM EDT (10/16)
Length of Visible Light 11h 52m
Length of Day
10h 52m
New Moon, 2% of the Moon is Illuminated
Oct 16
New Moon
Oct 21
First Quarter
Oct 29
Full
Nov 6
Last Quarter
Nov 13
New

Hourly Weather History & Observations

Time (EDT) Temp. Windchill Dew Point Humidity Pressure Visibility Wind Dir Wind Speed Gust Speed Precip Events Conditions
12:14 AM 30.2 °F - 26.6 °F 86% 29.92 in 10.0 mi Calm Calm - N/A   Clear
12:35 AM 30.2 °F - 28.4 °F 93% 29.91 in 10.0 mi Calm Calm - N/A   Clear
12:55 AM 28.4 °F - 26.6 °F 93% 29.92 in 10.0 mi Calm Calm - N/A   Clear
1:14 AM 28.4 °F - 26.6 °F 93% 29.91 in 10.0 mi Calm Calm - N/A   Clear
1:35 AM 28.4 °F - 26.6 °F 93% 29.91 in 10.0 mi Calm Calm - N/A   Clear
1:54 AM 30.2 °F - 28.4 °F 93% 29.92 in 10.0 mi Calm Calm - N/A   Clear
2:15 AM 30.2 °F - 28.4 °F 93% 29.93 in 10.0 mi Calm Calm - N/A   Clear
2:35 AM 32.0 °F - 28.4 °F 87% 29.92 in 10.0 mi Calm Calm - N/A   Clear
2:54 AM 30.2 °F - 28.4 °F 93% 29.92 in 10.0 mi Calm Calm - N/A   Clear
3:15 AM 30.2 °F - 28.4 °F 93% 29.92 in 10.0 mi Calm Calm - N/A   Clear
3:35 AM 30.2 °F - 28.4 °F 93% 29.91 in 10.0 mi Calm Calm - N/A   Clear
3:54 AM 30.2 °F - 28.4 °F 93% 29.91 in 10.0 mi Calm Calm - N/A   Clear
4:15 AM 30.2 °F - 28.4 °F 93% 29.91 in 10.0 mi Calm Calm - N/A   Clear
4:34 AM 30.2 °F - 28.4 °F 93% 29.90 in 10.0 mi Calm Calm - N/A   Clear
4:55 AM 30.2 °F - 28.4 °F 93% 29.89 in 10.0 mi Calm Calm - N/A   Clear
5:15 AM 32.0 °F - 30.2 °F 93% 29.89 in 10.0 mi Calm Calm - N/A   Clear
5:34 AM 33.8 °F - 30.2 °F 87% 29.88 in 10.0 mi Calm Calm - N/A   Clear
5:55 AM 42.8 °F 38.6 °F 37.4 °F 81% 29.88 in 10.0 mi South 6.9 mph - N/A   Clear
6:15 AM 44.6 °F 40.2 °F 39.2 °F 81% 29.88 in 10.0 mi South 8.1 mph - N/A   Scattered Clouds
6:34 AM 44.6 °F 40.2 °F 39.2 °F 81% 29.87 in 10.0 mi South 8.1 mph - N/A   Mostly Cloudy
6:55 AM 44.6 °F 40.2 °F 39.2 °F 81% 29.86 in 10.0 mi South 8.1 mph - N/A   Mostly Cloudy
7:14 AM 46.4 °F 42.9 °F 41.0 °F 81% 29.86 in 10.0 mi South 6.9 mph - N/A   Overcast
7:35 AM 46.4 °F 41.9 °F 41.0 °F 81% 29.86 in 10.0 mi SSW 9.2 mph - N/A   Mostly Cloudy
7:55 AM 48.2 °F - 42.8 °F 82% 29.86 in 10.0 mi South 9.2 mph - N/A   Overcast
8:14 AM 48.2 °F - 42.8 °F 82% 29.85 in 10.0 mi South 10.4 mph - N/A   Overcast
8:35 AM 48.2 °F - 42.8 °F 82% 29.85 in 10.0 mi South 10.4 mph - N/A   Overcast
8:55 AM 48.2 °F - 44.6 °F 87% 29.84 in 10.0 mi South 10.4 mph - N/A   Overcast
9:14 AM 48.2 °F - 44.6 °F 87% 29.83 in 10.0 mi South 10.4 mph 17.3 mph N/A   Overcast
9:35 AM 50.0 °F - 44.6 °F 82% 29.83 in 10.0 mi South 10.4 mph 16.1 mph N/A   Overcast
9:54 AM 51.8 °F - 46.4 °F 82% 29.82 in 10.0 mi South 12.7 mph - N/A   Overcast
10:15 AM 50.0 °F - 46.4 °F 87% 29.81 in 10.0 mi South 12.7 mph - N/A   Drizzle
10:35 AM 50.0 °F - 46.4 °F 87% 29.81 in 10.0 mi SSW 10.4 mph - N/A   Drizzle
10:54 AM 50.0 °F - 46.4 °F 87% 29.80 in 10.0 mi SSW 10.4 mph - N/A   Drizzle
11:15 AM 50.0 °F - 46.4 °F 87% 29.79 in 10.0 mi South 10.4 mph 18.4 mph N/A Rain Light Rain
11:35 AM 50.0 °F - 46.4 °F 87% 29.79 in 10.0 mi South 10.4 mph 16.1 mph N/A Rain Rain
11:54 AM 50.0 °F - 46.4 °F 87% 29.78 in 10.0 mi South 12.7 mph - N/A Rain Light Rain
12:15 PM 50.0 °F - 46.4 °F 87% 29.79 in 7.0 mi South 12.7 mph 18.4 mph N/A Rain Rain
12:34 PM 50.0 °F - 46.4 °F 87% 29.79 in 7.0 mi South 16.1 mph 20.7 mph N/A Rain Light Rain
12:55 PM 50.0 °F - 46.4 °F 87% 29.78 in 7.0 mi South 12.7 mph 18.4 mph N/A Rain Rain
1:15 PM 50.0 °F - 46.4 °F 87% 29.78 in 7.0 mi South 12.7 mph 17.3 mph N/A Rain Light Rain
1:34 PM 50.0 °F - 46.4 °F 87% 29.77 in 7.0 mi South 12.7 mph - N/A Rain Light Rain
1:55 PM 50.0 °F - 48.2 °F 94% 29.75 in 10.0 mi South 12.7 mph 17.3 mph N/A Rain Light Rain
2:14 PM 51.8 °F - 48.2 °F 88% 29.73 in 10.0 mi South 11.5 mph 17.3 mph N/A Rain Light Rain
2:35 PM 51.8 °F - 48.2 °F 88% 29.72 in 10.0 mi South 11.5 mph 17.3 mph N/A Rain Light Rain
2:55 PM 51.8 °F - 48.2 °F 88% 29.73 in 10.0 mi South 11.5 mph - N/A Rain Light Rain
3:14 PM 51.8 °F - 48.2 °F 88% 29.73 in 10.0 mi South 11.5 mph - N/A   Drizzle
3:35 PM 51.8 °F - 48.2 °F 88% 29.71 in 10.0 mi South 12.7 mph 18.4 mph N/A   Light Drizzle
3:55 PM 51.8 °F - 48.2 °F 88% 29.69 in 10.0 mi South 16.1 mph 21.9 mph N/A Rain Light Rain
4:14 PM 51.8 °F - 48.2 °F 88% 29.68 in 10.0 mi South 12.7 mph 19.6 mph N/A   Mostly Cloudy
4:35 PM 51.8 °F - 46.4 °F 82% 29.68 in 10.0 mi South 12.7 mph 19.6 mph N/A   Mostly Cloudy
4:54 PM 51.8 °F - 46.4 °F 82% 29.68 in 10.0 mi South 11.5 mph 16.1 mph N/A   Overcast
5:15 PM 53.6 °F - 48.2 °F 82% 29.67 in 10.0 mi South 11.5 mph - N/A   Mostly Cloudy
5:55 PM 51.8 °F - 46.4 °F 82% 29.65 in 10.0 mi South 11.5 mph - N/A   Scattered Clouds
6:15 PM 51.8 °F - 46.4 °F 82% 29.64 in 10.0 mi South 11.5 mph 18.4 mph N/A   Mostly Cloudy
6:34 PM 51.8 °F - 46.4 °F 82% 29.64 in 10.0 mi South 10.4 mph 16.1 mph N/A   Overcast
6:55 PM 53.6 °F - 46.4 °F 77% 29.64 in 10.0 mi South 11.5 mph - N/A   Overcast
7:15 PM 51.8 °F - 46.4 °F 82% 29.63 in 10.0 mi SSE 10.4 mph - N/A Rain Light Rain
7:34 PM 51.8 °F - 46.4 °F 82% 29.64 in 10.0 mi SSE 6.9 mph - N/A Rain Light Rain
7:55 PM 51.8 °F - 46.4 °F 82% 29.62 in 10.0 mi SSE 11.5 mph - N/A Rain Rain
8:14 PM 51.8 °F - 48.2 °F 88% 29.62 in 10.0 mi SSE 6.9 mph - N/A Rain Light Rain
8:35 PM 51.8 °F - 48.2 °F 88% 29.62 in 10.0 mi SSE 8.1 mph - N/A   Overcast
8:55 PM 51.8 °F - 48.2 °F 88% 29.62 in 10.0 mi SSE 10.4 mph - N/A Rain Light Rain
9:14 PM 53.6 °F - 48.2 °F 82% 29.62 in 10.0 mi SSE 9.2 mph - N/A Rain Light Rain
9:35 PM 53.6 °F - 46.4 °F 77% 29.62 in 10.0 mi SSE 9.2 mph - N/A   Overcast
9:55 PM 53.6 °F - 46.4 °F 77% 29.62 in 10.0 mi SSE 10.4 mph - N/A   Overcast
10:14 PM 53.6 °F - 46.4 °F 77% 29.61 in 10.0 mi SSE 9.2 mph - N/A   Overcast
10:35 PM 53.6 °F - 46.4 °F 77% 29.61 in 10.0 mi SE 9.2 mph - N/A   Overcast
10:54 PM 53.6 °F - 46.4 °F 77% 29.61 in 10.0 mi SSE 8.1 mph - N/A   Overcast
11:35 PM 53.6 °F - 46.4 °F 77% 29.61 in 10.0 mi SSE 8.1 mph - N/A   Scattered Clouds
11:54 PM 53.6 °F - 46.4 °F 77% 29.60 in 10.0 mi SE 8.1 mph - N/A   Scattered Clouds